#timestamp,LO_Frequency,Hit,StdDev 
1458028815.3,286047003.2,N
1458028835.1,286047005.8,N
1458028836.0,286047005.8,N
1458028855.8,286047006.5,N
1458028875.6,286047008.6,N
1458028895.5,286047006.8,N
1458028915.3,286047007.9,N
1458028935.1,286047007.8,N
1458028955.9,286047011.5,Y
1458028975.7,286047012.4,P
1458028995.5,286047010.4,N
1458029015.4,286047010.7,P
1458029035.2,286047009.9,Y
1458029055.0,286046997.8,P
1458029056.0,286046997.8,N
1458029075.8,286046997.5,N
1458029095.6,286046996.6,N
1458029115.4,286046995.2,N
1458029135.3,286046993.5,N
1458029155.1,286046993.9,N
1458029175.8,286046994.2,N
1458029195.7,286046995.6,N
1458029215.5,286046994.9,N
1458029235.3,286046997.0,N
1458029255.2,286046997.9,N
1458029275.9,286046997.6,N
1458029295.7,286046997.9,N
1458029315.6,286046997.0,N
1458029335.4,286046997.5,N
1458029355.2,286046992.5,N
1458029375.0,286046990.9,N
1458029376.0,286046990.9,N
1458029395.8,286046991.9,N
1458029415.6,286046995.8,N
1458029435.4,286046995.8,N
1458029455.3,286046999.5,N
1458029475.1,286046999.8,N
1458029495.8,286047004.1,N
1458029515.7,286047004.6,N
1458029535.5,286047006.5,N
1458029555.3,286047012.8,N
1458029575.2,286047014.4,N
1458029595.9,286047017.0,N
1458029615.7,286047015.3,N
1458029635.6,286047015.5,N
1458029655.4,286047014.5,N
1458029675.2,286047014.3,N
1458029695.0,286047014.4,N
1458029696.0,286047014.4,N
1458029715.8,286047018.5,N
1458029735.6,286047016.8,N
1458029755.4,286047012.7,N
1458029775.3,286047013.3,N
1458029795.1,286047019.1,N
1458029815.8,286047021.9,N
1458029835.7,286047021.3,N
1458029855.5,286047021.8,N
1458029875.3,286047019.5,N
1458029895.2,286047017.6,N
1458029915.9,286047016.2,N
1458029935.7,286047017.4,N
1458029955.6,286047020.7,N
1458029975.4,286047019.0,N
1458029995.2,286047017.3,N
1458030015.1,286047018.1,N
1458030016.0,286047018.1,Y
1458030035.8,286047004.1,P
1458030055.6,286047001.3,N
1458030075.5,286047007.2,N
1458030095.3,286047006.1,N
1458030115.1,286047009.3,N
1458030135.9,286047007.8,N
1458030155.7,286047010.4,N
1458030175.5,286047011.2,N
1458030195.4,286047011.6,Y
1458030215.2,286047000.2,P
1458030235.0,286047000.4,N
1458030235.9,286047000.4,N
1458030255.8,286046998.4,N
1458030275.6,286046996.7,N
1458030295.4,286046996.7,N
1458030315.2,286046997.6,N
1458030335.1,286046997.1,N
1458030336.0,286046997.1,N
1458030355.8,286046999.6,N
1458030375.6,286046995.5,N
1458030395.5,286046994.2,N
1458030415.3,286046993.4,N
1458030435.1,286046992.3,N
1458030455.9,286046989.6,N
1458030475.7,286046989.3,N
1458030495.5,286046987.4,N
1458030515.4,286046983.7,Y
1458030535.2,286046989.0,P
1458030555.0,286046991.4,N
1458030555.9,286046991.4,N
1458030575.8,286046987.5,Y
1458030595.6,286046995.6,P
1458030615.4,286046994.5,P
1458030635.3,286046992.6,P
1458030655.1,286046990.3,Y
1458030675.8,286046998.3,P
1458030695.7,286046996.5,N
1458030715.5,286046999.5,N
1458030735.3,286046998.3,N
1458030755.2,286046999.2,N
1458030775.9,286046996.6,N
1458030795.7,286046996.6,N
1458030815.6,286046999.0,N
1458030835.4,286046999.5,N
1458030855.2,286046997.1,N
1458030875.0,286046999.4,N
1458030875.9,286046999.4,N
1458030895.8,286046999.5,N
1458030915.6,286046999.2,N
1458030935.4,286046998.9,N
1458030955.3,286046999.1,N
1458030975.1,286046998.8,N
1458030995.8,286046999.1,N
1458031015.7,286047001.1,N
1458031035.5,286046997.7,N
1458031055.3,286046995.9,N
1458031075.2,286046999.1,N
1458031095.9,286046993.3,Y
1458031115.7,286046995.6,P
1458031135.6,286046996.9,N
1458031155.4,286046995.0,P
1458031175.2,286046996.1,Y
1458031195.1,286046996.6,P
1458031196.0,286046996.6,P
1458031215.8,286046999.4,P
1458031235.6,286046998.9,N
1458031255.5,286046998.3,N
1458031275.3,286047001.1,N
1458031295.1,286046996.6,N
1458031315.9,286046996.5,N
1458031335.7,286046998.4,N
1458031355.5,286047000.5,N
1458031375.3,286047001.3,N
1458031395.2,286047004.7,N
1458031415.0,286047001.6,N
1458031415.9,286047001.6,N
1458031435.7,286047005.4,N
1458031455.6,286047005.6,N
1458031475.4,286047004.2,N
1458031495.2,286047004.3,N
1458031515.1,286047001.8,N
1458031516.0,286047001.8,N
1458031535.8,286047000.9,N
1458031555.6,286046999.9,N
1458031575.5,286047002.5,N
1458031595.3,286046997.5,N
1458031615.1,286046996.2,N
1458031635.9,286046996.7,N
1458031655.7,286046997.4,N
1458031675.5,286046995.6,N
1458031695.4,286046996.2,N
1458031715.2,286046998.4,N
1458031735.0,286047000.2,N
1458031735.9,286047000.2,N
1458031755.7,286047003.8,N
1458031775.6,286047005.0,N
1458031795.4,286047002.7,N
1458031815.2,286046999.3,N
1458031835.1,286046998.6,N
1458031836.0,286046998.6,N
1458031855.8,286046996.6,N
1458031875.6,286046997.7,N
1458031895.5,286046997.5,N
1458031915.3,286046994.4,N
1458031935.1,286046995.9,N
1458031955.9,286046993.9,N
1458031975.7,286046994.8,N
1458031995.5,286046994.4,N
1458032015.4,286046995.8,N
1458032035.2,286046996.1,N
1458032055.0,286046996.1,N
1458032055.9,286046996.1,N
1458032075.8,286046993.3,N
1458032095.6,286046998.0,N
1458032115.4,286046998.5,N
1458032135.3,286047002.9,N
1458032155.1,286047000.3,N
1458032156.0,286047000.3,N
1458032175.8,286046994.9,N
1458032195.6,286046997.0,N
1458032215.5,286046997.3,N
1458032235.3,286046996.5,N
1458032255.1,286047001.2,N
1458032275.9,286046995.3,N
1458032295.7,286046993.9,N
1458032315.5,286046997.7,N
1458032335.4,286046998.0,N
1458032355.2,286046997.5,N
1458032375.0,286046998.3,N
1458032375.9,286046998.3,N
1458032395.8,286047000.6,N
